DW5833 Weather Reports


time (UTC)temp
C
wind
direction
speed
KPH
gust
KPH
rain 1hr
cm
rain 24hr
cm
rain mn
cm
humidity
%
barometer
mb
20260504211512 20 260 3.2 8.0 0.00 0.00 0.00 35 1004.8
20260504210013 20 252 1.6 8.0 0.00 0.00 0.00 34 1004.9
20260504204531 20 285 0.0 12.9 0.00 0.00 0.00 33 1004.7
20260504203017 21 170 3.2 9.7 0.00 0.00 0.00 33 1004.8
20260504201508 20 103 1.6 6.4 0.00 0.00 0.00 34 1004.9
20260504200007 20 314 3.2 11.3 0.00 0.00 0.00 33 1004.9
20260504194507 20 276 1.6 12.9 0.00 0.00 0.00 33 1004.9
20260504193005 20 49 3.2 11.3 0.00 0.00 0.00 33 1004.9
20260504191504 20 72 1.6 8.0 0.00 0.00 0.00 34 1005.1
20260504190004 20 246 4.8 11.3 0.00 0.00 0.00 33 1005.0
20260504184502 20 236 1.6 11.3 0.00 0.00 0.00 33 1005.1
20260504183059 20 234 3.2 9.7 0.00 0.00 0.00 35 1005.2
20260504181603 19 58 3.2 9.7 0.00 0.00 0.00 35 1005.3
20260504180158 19 313 3.2 9.7 0.00 0.00 0.00 34 1005.4
20260504174614 19 277 3.2 11.3 0.00 0.00 0.00 34 1005.5
20260504173055 20 329 3.2 11.3 0.00 0.00 0.00 33 1005.5
20260504171554 18 215 3.2 8.0 0.00 0.00 0.00 34 1005.7
20260504081520 5 153 0.0 0.0 0.00 0.10 0.00 70 1008.7
20260504044603 5 293 1.6 3.2 0.00 0.13 0.00 61 1008.8
20260504043057 4 305 0.0 1.6 0.00 0.13 0.00 62 1008.7
20260504041552 4 306 0.0 1.6 0.00 0.13 0.00 64 1008.7
20260504040103 4 306 0.0 0.0 0.00 0.13 0.00 64 1008.6
20260504034609 4 306 0.0 1.6 0.00 0.28 0.13 65 1008.5
20260504033045 4 316 0.0 0.0 0.00 0.28 0.13 65 1008.6
20260504031546 4 316 0.0 0.0 0.00 0.28 0.13 66 1008.5
20260504024549 4 316 0.0 0.0 0.00 0.28 0.13 67 1008.4
20260504023044 4 316 0.0 0.0 0.00 0.28 0.13 65 1008.5
20260504021549 5 316 0.0 0.0 0.00 0.28 0.13 63 1008.5
20260504020043 5 316 0.0 0.0 0.00 0.28 0.13 62 1008.4
20260504014543 5 316 0.0 1.6 0.00 0.28 0.13 62 1008.3
20260504013049 5 316 0.0 1.6 0.00 0.28 0.13 61 1008.3
20260504011542 5 318 0.0 1.6 0.00 0.28 0.13 61 1008.0
20260504010041 6 318 0.0 1.6 0.00 0.28 0.13 59 1007.9
20260504004541 6 319 0.0 1.6 0.00 0.28 0.13 56 1007.7
20260504003040 6 319 0.0 3.2 0.00 0.28 0.13 56 1007.6
20260504001552 6 321 0.0 1.6 0.00 0.28 0.13 55 1007.6
20260504000039 7 321 0.0 3.2 0.00 0.28 0.13 52 1007.2
20260503234539 7 323 0.0 3.2 0.00 0.38 0.13 51 1007.2
20260503233040 7 330 0.0 3.2 0.00 0.38 0.13 50 1007.0
20260503231538 8 338 0.0 4.8 0.00 0.38 0.13 48 1006.8
20260503230038 8 315 1.6 9.7 0.00 0.38 0.13 47 1006.6
20260503224536 8 307 3.2 8.0 0.00 0.53 0.13 46 1006.4
20260503223036 8 300 3.2 9.7 0.00 0.53 0.13 45 1006.3
20260503221542 9 17 1.6 6.4 0.00 0.53 0.13 44 1006.1
20260503220036 9 347 3.2 9.7 0.00 0.53 0.13 43 1006.1
20260503214537 9 25 3.2 12.9 0.00 0.61 0.13 43 1006.0
20260503213040 9 319 4.8 16.1 0.00 0.61 0.13 42 1005.9